Simultaneous Nadir Overpasses (SNOs) Predictions

Prediction of SNOs between GOES-14 and NOAA-20 Satellite Orbit:

Table of predicted SNOs for the next 14.0 days since TLE Epoch: 2/12/2022
Index Date Time (GOES-14) GOES-14 Lat,Lon NOAA-20 Lat,Lon Distance(km) Time Diff (sec)
1 02/12/2022 08:35:59 0.04,-104.61 0.79,-107.97 382.88 80
2 02/13/2022 08:19:55 0.04,-104.62 -0.22,-103.44 133.58 80
3 02/15/2022 20:20:29 -0.04,-104.34 -0.02,-104.21 14.55 80
4 02/18/2022 08:23:36 0.04,-104.61 0.14,-104.97 40.94 80
5 02/19/2022 08:07:32 0.03,-104.62 -0.88,-100.44 475.76 80
6 02/20/2022 20:29:30 -0.03,-104.36 -0.36,-105.73 157.73 80
7 02/21/2022 20:08:06 -0.03,-104.35 0.65,-101.21 357.73 80
8 02/23/2022 08:29:56 0.03,-104.60 0.48,-106.49 215.48 80
9 02/24/2022 08:13:53 0.04,-104.61 -0.53,-101.96 300.94 80
10 02/25/2022 20:35:50 -0.04,-104.36 -0.70,-107.26 331.09 80
